SKU1651 SCCF-SCSE

Flight info

Callsign SKU1651
Flight time 1h 13m
Altitude 37000
Route CEPAM4C CEPAM UQ815 MORMI UT252 BOMEG BOMEG1A
Aircraft A21N/M-SDE2E3FGHIRWXY/LB1

Departure

Time 2026-04-22 02:59
Airport El Loa Airport (SCCF)

Arrival

Time 2026-04-22 04:13
Airport La Florida Airport (SCSE)
Time Latitude Longitude Altitude Speed Heading
2026-04-22 02:22 -22.49595 -68.90756 7514 ft 0 kts 360°
2026-04-22 02:49 -22.49611 -68.90756 7497 ft 4 kts 359°
2026-04-22 02:50 -22.49638 -68.90754 7513 ft 4 kts 346°
2026-04-22 02:50 -22.49658 -68.90743 7496 ft 4 kts 296°
2026-04-22 02:50 -22.49661 -68.90729 7497 ft 1 kts 274°
2026-04-22 02:50 -22.49661 -68.90728 7513 ft 0 kts 274°
2026-04-22 02:53 -22.49661 -68.90731 7513 ft 1 kts 274°
2026-04-22 02:53 -22.49663 -68.90747 7501 ft 3 kts 253°
2026-04-22 02:54 -22.49679 -68.90769 7504 ft 5 kts 203°
2026-04-22 02:54 -22.49721 -68.90775 7498 ft 8 kts 183°
2026-04-22 02:54 -22.49785 -68.90778 7502 ft 11 kts 170°
2026-04-22 02:54 -22.49815 -68.90696 7516 ft 15 kts 91°
2026-04-22 02:55 -22.49821 -68.90573 7525 ft 18 kts 94°
2026-04-22 02:55 -22.49831 -68.90425 7531 ft 21 kts 94°
2026-04-22 02:55 -22.49843 -68.90253 7546 ft 24 kts 94°
2026-04-22 02:55 -22.49855 -68.90063 7559 ft 27 kts 94°
2026-04-22 02:56 -22.49869 -68.89848 7573 ft 30 kts 94°
2026-04-22 02:56 -22.49885 -68.89613 7588 ft 33 kts 94°
2026-04-22 02:56 -22.49901 -68.89384 7603 ft 24 kts 94°
2026-04-22 02:56 -22.49913 -68.89215 7614 ft 21 kts 94°
2026-04-22 02:57 -22.49923 -68.89048 7624 ft 24 kts 94°
2026-04-22 02:57 -22.49934 -68.88898 7634 ft 13 kts 101°
2026-04-22 02:57 -22.50005 -68.88846 7715 ft 6 kts 175°
2026-04-22 02:57 -22.50056 -68.88849 7643 ft 9 kts 187°
2026-04-22 02:58 -22.50104 -68.88882 7640 ft 9 kts 256°
2026-04-22 02:58 -22.50104 -68.88905 7636 ft 1 kts 275°
2026-04-22 02:58 -22.50099 -68.88973 7632 ft 42 kts 275°
2026-04-22 02:58 -22.50059 -68.89630 7590 ft 129 kts 274°
2026-04-22 02:59 -22.49974 -68.90846 7575 ft 185 kts 273°
2026-04-22 02:59 -22.49929 -68.92270 8106 ft 192 kts 271°
2026-04-22 02:59 -22.49901 -68.93701 8815 ft 193 kts 272°
2026-04-22 02:59 -22.49804 -68.95170 9477 ft 203 kts 277°
2026-04-22 03:00 -22.49644 -68.96774 9968 ft 225 kts 276°
2026-04-22 03:00 -22.49532 -68.98523 10499 ft 242 kts 270°
2026-04-22 03:00 -22.49832 -69.00370 10956 ft 259 kts 249°
2026-04-22 03:00 -22.50787 -69.02110 11458 ft 283 kts 226°
2026-04-22 03:01 -22.51836 -69.03046 11668 ft 296 kts 209°
2026-04-22 03:01 -22.54453 -69.03988 12573 ft 305 kts 191°
2026-04-22 03:01 -22.55868 -69.04268 13132 ft 307 kts 190°
2026-04-22 03:01 -22.57964 -69.04676 13947 ft 311 kts 191°
2026-04-22 03:02 -22.60101 -69.05118 14694 ft 315 kts 191°
2026-04-22 03:02 -22.62263 -69.05585 15374 ft 320 kts 192°
2026-04-22 03:02 -22.64464 -69.06075 16042 ft 325 kts 193°
2026-04-22 03:02 -22.66702 -69.06580 16692 ft 332 kts 194°
2026-04-22 03:03 -22.68980 -69.07098 17359 ft 337 kts 194°
2026-04-22 03:03 -22.71291 -69.07627 18001 ft 344 kts 195°
2026-04-22 03:03 -22.73673 -69.08173 18484 ft 355 kts 194°
2026-04-22 03:03 -22.76184 -69.08490 18752 ft 374 kts 182°
2026-04-22 03:04 -22.78835 -69.08280 19027 ft 389 kts 176°
2026-04-22 03:04 -22.81549 -69.07949 19519 ft 394 kts 176°
2026-04-22 03:04 -22.84285 -69.07610 20103 ft 398 kts 176°
2026-04-22 03:04 -22.87052 -69.07281 20698 ft 400 kts 176°
2026-04-22 03:05 -22.89833 -69.06959 21277 ft 403 kts 177°
2026-04-22 03:05 -22.92639 -69.06636 21850 ft 407 kts 177°
2026-04-22 03:05 -22.95459 -69.06311 22440 ft 410 kts 177°
2026-04-22 03:05 -22.98274 -69.05988 23015 ft 413 kts 178°
2026-04-22 03:06 -23.01144 -69.05658 23586 ft 416 kts 178°
2026-04-22 03:06 -23.04036 -69.05328 24087 ft 420 kts 178°
2026-04-22 03:06 -23.06952 -69.04994 24510 ft 424 kts 178°
2026-04-22 03:06 -23.09897 -69.04654 24944 ft 427 kts 178°
2026-04-22 03:07 -23.12866 -69.04312 25371 ft 431 kts 178°
2026-04-22 03:07 -23.15866 -69.03966 25789 ft 435 kts 178°
2026-04-22 03:07 -23.18888 -69.03617 26186 ft 439 kts 179°
2026-04-22 03:07 -23.21938 -69.03266 26594 ft 442 kts 179°
2026-04-22 03:08 -23.25019 -69.02914 27003 ft 446 kts 179°
2026-04-22 03:08 -23.28114 -69.02557 27393 ft 449 kts 179°
2026-04-22 03:08 -23.31239 -69.02222 27768 ft 452 kts 182°
2026-04-22 03:08 -23.34370 -69.02313 28115 ft 447 kts 193°
2026-04-22 03:09 -23.37447 -69.02803 28474 ft 448 kts 195°
2026-04-22 03:09 -23.40494 -69.03357 28828 ft 451 kts 196°
2026-04-22 03:09 -23.43640 -69.03924 29186 ft 454 kts 195°
2026-04-22 03:09 -23.46739 -69.04473 29521 ft 457 kts 195°
2026-04-22 03:10 -23.49887 -69.05025 29859 ft 460 kts 195°
2026-04-22 03:10 -23.53064 -69.05580 30201 ft 463 kts 195°
2026-04-22 03:10 -23.56252 -69.06136 30495 ft 466 kts 196°
2026-04-22 03:10 -23.59466 -69.06700 30784 ft 469 kts 196°
2026-04-22 03:11 -23.62696 -69.07271 31074 ft 472 kts 196°
2026-04-22 03:11 -23.65952 -69.07843 31364 ft 474 kts 196°
2026-04-22 03:11 -23.69220 -69.08412 31635 ft 477 kts 196°
2026-04-22 03:11 -23.72506 -69.08987 31922 ft 480 kts 196°
2026-04-22 03:12 -23.75813 -69.09570 32197 ft 482 kts 196°
2026-04-22 03:12 -23.82468 -69.10733 32809 ft 485 kts 196°
2026-04-22 03:12 -23.85800 -69.11314 33164 ft 484 kts 196°
2026-04-22 03:13 -23.89134 -69.11903 33510 ft 484 kts 196°
2026-04-22 03:13 -23.92460 -69.12494 33853 ft 485 kts 196°
2026-04-22 03:13 -23.95796 -69.13084 34175 ft 485 kts 196°
2026-04-22 03:13 -23.99131 -69.13671 34473 ft 485 kts 196°
2026-04-22 03:14 -24.02462 -69.14256 34763 ft 485 kts 196°
2026-04-22 03:14 -24.05794 -69.14841 35047 ft 485 kts 196°
2026-04-22 03:14 -24.09079 -69.15419 35337 ft 485 kts 197°
2026-04-22 03:14 -24.12412 -69.16007 35614 ft 484 kts 197°
2026-04-22 03:15 -24.15740 -69.16591 35886 ft 484 kts 197°
2026-04-22 03:15 -24.19064 -69.17174 36181 ft 484 kts 197°
2026-04-22 03:15 -24.22389 -69.17760 36441 ft 484 kts 197°
2026-04-22 03:15 -24.25712 -69.18348 36662 ft 484 kts 197°
2026-04-22 03:16 -24.29044 -69.18936 36935 ft 483 kts 197°
2026-04-22 03:16 -24.32363 -69.19518 37179 ft 484 kts 198°
2026-04-22 03:16 -24.38962 -69.20669 37222 ft 482 kts 198°
2026-04-22 03:17 -24.45594 -69.21834 37201 ft 482 kts 198°
2026-04-22 03:17 -24.52216 -69.22999 37211 ft 481 kts 198°
2026-04-22 03:18 -24.58825 -69.24188 37210 ft 481 kts 199°
2026-04-22 03:18 -24.65439 -69.25373 37222 ft 481 kts 198°
2026-04-22 03:19 -24.72037 -69.26544 37199 ft 479 kts 198°
2026-04-22 03:19 -24.78637 -69.27721 37248 ft 481 kts 199°
2026-04-22 03:20 -24.85247 -69.28889 37228 ft 480 kts 199°
2026-04-22 03:20 -24.91847 -69.30070 37242 ft 480 kts 199°
2026-04-22 03:21 -24.98401 -69.31246 37245 ft 480 kts 199°
2026-04-22 03:21 -25.05007 -69.32430 37250 ft 480 kts 199°
2026-04-22 03:22 -25.11605 -69.33610 37268 ft 480 kts 199°
2026-04-22 03:22 -25.18191 -69.34789 37263 ft 479 kts 199°
2026-04-22 03:23 -25.24778 -69.35970 37263 ft 479 kts 199°
2026-04-22 03:23 -25.31368 -69.37152 37268 ft 479 kts 199°
2026-04-22 03:24 -25.37955 -69.38338 37287 ft 480 kts 199°
2026-04-22 03:24 -25.44534 -69.39521 37220 ft 478 kts 200°
2026-04-22 03:25 -25.51106 -69.40707 37214 ft 478 kts 200°
2026-04-22 03:25 -25.57525 -69.42169 37210 ft 465 kts 209°
2026-04-22 03:26 -25.63625 -69.44509 37209 ft 462 kts 211°
2026-04-22 03:26 -25.69714 -69.46846 37225 ft 462 kts 211°
2026-04-22 03:27 -25.75794 -69.49141 37209 ft 462 kts 210°
2026-04-22 03:27 -25.81854 -69.51422 37210 ft 463 kts 210°
2026-04-22 03:28 -25.87955 -69.53723 37186 ft 463 kts 211°
2026-04-22 03:28 -25.94059 -69.56033 37162 ft 463 kts 211°
2026-04-22 03:29 -26.00162 -69.58344 37187 ft 463 kts 211°
2026-04-22 03:29 -26.06249 -69.60647 37172 ft 462 kts 211°
2026-04-22 03:30 -26.12331 -69.62948 37170 ft 461 kts 211°
2026-04-22 03:30 -26.18412 -69.65253 37176 ft 462 kts 211°
2026-04-22 03:31 -26.24494 -69.67561 37156 ft 462 kts 211°
2026-04-22 03:31 -26.30582 -69.69871 37185 ft 462 kts 211°
2026-04-22 03:32 -26.36615 -69.72164 37167 ft 460 kts 211°
2026-04-22 03:32 -26.42679 -69.74473 37161 ft 460 kts 212°
2026-04-22 03:33 -26.48737 -69.76785 37174 ft 459 kts 212°
2026-04-22 03:33 -26.54787 -69.79098 37170 ft 460 kts 211°
2026-04-22 03:34 -26.60847 -69.81414 37172 ft 460 kts 212°
2026-04-22 03:34 -26.66883 -69.83721 37145 ft 457 kts 212°
2026-04-22 03:35 -26.72909 -69.86030 37146 ft 458 kts 212°
2026-04-22 03:35 -26.78895 -69.88326 37151 ft 457 kts 212°
2026-04-22 03:36 -26.84910 -69.90636 37145 ft 456 kts 212°
2026-04-22 03:36 -26.90926 -69.92949 37147 ft 457 kts 212°
2026-04-22 03:37 -26.96944 -69.95263 37141 ft 457 kts 212°
2026-04-22 03:37 -27.02965 -69.97579 37136 ft 457 kts 212°
2026-04-22 03:38 -27.08980 -69.99899 37132 ft 457 kts 212°
2026-04-22 03:38 -27.14990 -70.02221 37132 ft 456 kts 212°
2026-04-22 03:39 -27.20958 -70.04528 37158 ft 456 kts 212°
2026-04-22 03:39 -27.26958 -70.06848 37133 ft 456 kts 212°
2026-04-22 03:40 -27.32979 -70.09121 37125 ft 457 kts 212°
2026-04-22 03:40 -27.39009 -70.11387 37124 ft 456 kts 212°
2026-04-22 03:41 -27.45041 -70.13661 37130 ft 456 kts 212°
2026-04-22 03:41 -27.51068 -70.15933 37163 ft 457 kts 212°
2026-04-22 03:42 -27.57085 -70.18201 37129 ft 455 kts 212°
2026-04-22 03:42 -27.63049 -70.20452 37126 ft 455 kts 212°
2026-04-22 03:43 -27.69067 -70.22732 37128 ft 456 kts 212°
2026-04-22 03:43 -27.75091 -70.25015 37130 ft 457 kts 212°
2026-04-22 03:44 -27.81118 -70.27301 37169 ft 457 kts 212°
2026-04-22 03:44 -27.87143 -70.29593 37139 ft 456 kts 212°
2026-04-22 03:45 -27.93158 -70.31875 37137 ft 456 kts 212°
2026-04-22 03:45 -27.96157 -70.33010 36984 ft 451 kts 212°
2026-04-22 03:45 -27.99143 -70.34145 36683 ft 454 kts 212°
2026-04-22 03:46 -28.02144 -70.35291 36423 ft 455 kts 212°
2026-04-22 03:46 -28.05140 -70.36435 36177 ft 454 kts 212°
2026-04-22 03:46 -28.08132 -70.37576 35941 ft 453 kts 212°
2026-04-22 03:46 -28.11071 -70.38693 35740 ft 450 kts 212°
2026-04-22 03:47 -28.14033 -70.39820 35500 ft 447 kts 212°
2026-04-22 03:47 -28.16974 -70.40945 35265 ft 445 kts 212°
2026-04-22 03:47 -28.19912 -70.42070 35029 ft 444 kts 212°
2026-04-22 03:47 -28.22842 -70.43192 34793 ft 441 kts 212°
2026-04-22 03:48 -28.25742 -70.44303 34556 ft 440 kts 212°
2026-04-22 03:48 -28.28631 -70.45408 34194 ft 436 kts 212°
2026-04-22 03:48 -28.31461 -70.46492 33698 ft 432 kts 212°
2026-04-22 03:48 -28.34305 -70.47584 33180 ft 429 kts 212°
2026-04-22 03:49 -28.37118 -70.48663 32676 ft 426 kts 211°
2026-04-22 03:49 -28.39915 -70.49737 32214 ft 424 kts 211°
2026-04-22 03:49 -28.41800 -70.50461 31868 ft 423 kts 211°
2026-04-22 03:49 -28.45487 -70.51880 31188 ft 422 kts 211°
2026-04-22 03:50 -28.47367 -70.52603 30848 ft 420 kts 211°
2026-04-22 03:50 -28.50001 -70.53890 30371 ft 402 kts 223°
2026-04-22 03:50 -28.52149 -70.55762 29869 ft 383 kts 233°
2026-04-22 03:50 -28.54060 -70.57839 29351 ft 379 kts 234°
2026-04-22 03:51 -28.55915 -70.59902 28875 ft 376 kts 234°
2026-04-22 03:51 -28.57784 -70.61963 28412 ft 373 kts 234°
2026-04-22 03:51 -28.59644 -70.63996 27970 ft 370 kts 233°
2026-04-22 03:51 -28.61500 -70.66011 27554 ft 366 kts 233°
2026-04-22 03:52 -28.63341 -70.68004 27127 ft 364 kts 233°
2026-04-22 03:52 -28.65170 -70.69983 26685 ft 362 kts 232°
2026-04-22 03:52 -28.66989 -70.71953 26248 ft 360 kts 232°
2026-04-22 03:52 -28.68793 -70.73907 25832 ft 357 kts 232°
2026-04-22 03:53 -28.70589 -70.75850 25448 ft 355 kts 232°
2026-04-22 03:53 -28.72392 -70.77775 25028 ft 357 kts 229°
2026-04-22 03:53 -28.74510 -70.79326 24546 ft 371 kts 210°
2026-04-22 03:53 -28.77056 -70.80038 24104 ft 385 kts 191°
2026-04-22 03:54 -28.79750 -70.80084 23669 ft 389 kts 186°
2026-04-22 03:54 -28.82461 -70.80031 23144 ft 388 kts 185°
2026-04-22 03:54 -28.85158 -70.80011 22638 ft 387 kts 186°
2026-04-22 03:54 -28.87808 -70.80027 22154 ft 385 kts 186°
2026-04-22 03:55 -28.90484 -70.80062 21668 ft 384 kts 186°
2026-04-22 03:55 -28.93150 -70.80105 21189 ft 382 kts 186°
2026-04-22 03:55 -28.95812 -70.80151 20730 ft 381 kts 186°
2026-04-22 03:55 -28.98445 -70.80197 20299 ft 376 kts 186°
2026-04-22 03:56 -29.01051 -70.80242 19896 ft 372 kts 186°
2026-04-22 03:56 -29.03625 -70.80288 19460 ft 369 kts 186°
2026-04-22 03:56 -29.06185 -70.80333 19030 ft 366 kts 186°
2026-04-22 03:56 -29.08718 -70.80378 18633 ft 362 kts 185°
2026-04-22 03:57 -29.11222 -70.80424 18220 ft 358 kts 185°
2026-04-22 03:57 -29.13708 -70.80468 17790 ft 355 kts 185°
2026-04-22 03:57 -29.16162 -70.80512 17375 ft 351 kts 185°
2026-04-22 03:57 -29.18586 -70.80554 16978 ft 347 kts 185°
2026-04-22 03:58 -29.20980 -70.80597 16611 ft 342 kts 185°
2026-04-22 03:58 -29.23349 -70.80639 16258 ft 340 kts 185°
2026-04-22 03:58 -29.25721 -70.80683 15918 ft 341 kts 184°
2026-04-22 03:58 -29.28095 -70.80727 15577 ft 342 kts 184°
2026-04-22 03:59 -29.30481 -70.80770 15225 ft 343 kts 184°
2026-04-22 03:59 -29.32869 -70.80812 14859 ft 344 kts 184°
2026-04-22 03:59 -29.35273 -70.80855 14503 ft 346 kts 184°
2026-04-22 03:59 -29.37686 -70.80896 14139 ft 347 kts 184°
2026-04-22 04:00 -29.40109 -70.80935 13757 ft 348 kts 183°
2026-04-22 04:00 -29.42500 -70.80974 13372 ft 349 kts 183°
2026-04-22 04:00 -29.44928 -70.81013 12987 ft 348 kts 182°
2026-04-22 04:00 -29.47343 -70.81051 12618 ft 346 kts 182°
2026-04-22 04:01 -29.49740 -70.81090 12244 ft 342 kts 182°
2026-04-22 04:01 -29.52102 -70.81129 11875 ft 338 kts 181°
2026-04-22 04:01 -29.54442 -70.81167 11521 ft 334 kts 181°
2026-04-22 04:01 -29.56756 -70.81222 11159 ft 331 kts 183°
2026-04-22 04:02 -29.59052 -70.81339 10809 ft 328 kts 184°
2026-04-22 04:02 -29.61320 -70.81462 10460 ft 325 kts 184°
2026-04-22 04:02 -29.63568 -70.81580 10112 ft 322 kts 183°
2026-04-22 04:02 -29.65808 -70.81696 9698 ft 320 kts 182°
2026-04-22 04:03 -29.68023 -70.81807 9324 ft 316 kts 183°
2026-04-22 04:03 -29.70211 -70.81918 8949 ft 313 kts 182°
2026-04-22 04:03 -29.72379 -70.82023 8586 ft 311 kts 182°
2026-04-22 04:03 -29.74522 -70.82059 8276 ft 305 kts 180°
2026-04-22 04:04 -29.76642 -70.82072 7893 ft 304 kts 180°
2026-04-22 04:04 -29.78752 -70.82084 7584 ft 301 kts 180°
2026-04-22 04:04 -29.80816 -70.82172 7407 ft 292 kts 189°
2026-04-22 04:04 -29.82687 -70.82932 7193 ft 282 kts 208°
2026-04-22 04:05 -29.84355 -70.84037 6831 ft 278 kts 212°
2026-04-22 04:05 -29.86008 -70.85169 6436 ft 274 kts 212°
2026-04-22 04:05 -29.87584 -70.86311 6311 ft 258 kts 220°
2026-04-22 04:05 -29.88704 -70.87808 6215 ft 242 kts 241°
2026-04-22 04:06 -29.89481 -70.89505 5907 ft 238 kts 246°
2026-04-22 04:06 -29.90217 -70.91213 5571 ft 237 kts 245°
2026-04-22 04:06 -29.90957 -70.92897 5335 ft 231 kts 243°
2026-04-22 04:06 -29.91851 -70.94323 5345 ft 208 kts 224°
2026-04-22 04:07 -29.93069 -70.95185 5144 ft 206 kts 206°
2026-04-22 04:07 -29.94357 -70.95902 5090 ft 205 kts 207°
2026-04-22 04:07 -29.95637 -70.96631 5107 ft 205 kts 207°
2026-04-22 04:07 -29.96918 -70.97368 5029 ft 205 kts 207°
2026-04-22 04:08 -29.98084 -70.98251 4736 ft 203 kts 220°
2026-04-22 04:08 -29.99148 -70.99312 4394 ft 201 kts 224°
2026-04-22 04:08 -29.99862 -71.00663 4044 ft 198 kts 257°
2026-04-22 04:08 -29.99938 -71.02228 3749 ft 195 kts 271°
2026-04-22 04:09 -29.99671 -71.03741 3428 ft 193 kts 298°
2026-04-22 04:09 -29.98807 -71.04892 3143 ft 189 kts 316°
2026-04-22 04:09 -29.97870 -71.05937 2846 ft 185 kts 314°
2026-04-22 04:09 -29.97160 -71.07099 2632 ft 172 kts 296°
2026-04-22 04:10 -29.96656 -71.08309 2387 ft 159 kts 296°
2026-04-22 04:10 -29.96213 -71.09356 2329 ft 139 kts 295°
2026-04-22 04:10 -29.95796 -71.10353 2210 ft 137 kts 296°
2026-04-22 04:10 -29.95365 -71.11333 2011 ft 136 kts 297°
2026-04-22 04:11 -29.94942 -71.12308 1811 ft 135 kts 296°
2026-04-22 04:11 -29.94526 -71.13283 1624 ft 135 kts 296°
2026-04-22 04:11 -29.94108 -71.14257 1441 ft 135 kts 296°
2026-04-22 04:11 -29.93698 -71.15218 1258 ft 135 kts 296°
2026-04-22 04:12 -29.93286 -71.16180 1076 ft 133 kts 296°
2026-04-22 04:12 -29.92867 -71.17144 891 ft 132 kts 297°
2026-04-22 04:12 -29.92462 -71.18067 718 ft 130 kts 296°
2026-04-22 04:12 -29.92057 -71.18998 532 ft 129 kts 296°
2026-04-22 04:13 -29.91711 -71.19800 479 ft 75 kts 296°
2026-04-22 04:13 -29.91601 -71.20054 481 ft 13 kts 296°
2026-04-22 04:13 -29.91556 -71.20158 478 ft 16 kts 296°
2026-04-22 04:13 -29.91536 -71.20254 486 ft 9 kts 246°
2026-04-22 04:14 -29.91572 -71.20288 485 ft 4 kts 202°
2026-04-22 04:14 -29.91588 -71.20295 479 ft 0 kts 201°
2026-04-22 04:14 -29.91592 -71.20298 486 ft 2 kts 202°
2026-04-22 04:14 -29.91612 -71.20308 482 ft 4 kts 207°
2026-04-22 04:15 -29.91645 -71.20328 486 ft 4 kts 207°
2026-04-22 04:15 -29.91658 -71.20335 486 ft 0 kts 206°